Zurück zum Katalog

STARLINK-5255

AktivKommunikationVLEO
NORAD 54208·PAYLOAD·🇺🇸 United States

Gestartet Oct 28, 2022 von Vandenberg Space Force Base

Loading…

Nächste Überflüge (nächste 24 Stunden)

TLE

AktuellSource: CelesTrak SupGP

Epoche: Sep 14, 2026, 14:40 UTC

1 54208C 22141BD  26257.61159722  .00025518  00000+0  82064-3 0  2574
2 54208  53.1592 190.3050 0001444  91.3448 252.8534 15.31687365    11

Verfolge STARLINK-5255 in Echtzeit mit AllMySat

Download on the App Store